Wind_Speed
39 35 34 30 28 25 23 22 23 25 24 23 21 21 19 17 17 17 15 14 13 10
38 37 33 33 32 28 26 22 25 26 25 25 25 24 22 19 20 20 18 16 15 13
40 40 40 33 33 32 31 32 23 26 25 24 24 25 26 21 21 22 19 16 16 17
39 39 37 35 36 37 38 38 35 32 28 26 24 25 27 26 22 25 22 20 18 17
38 38 38 39 39 40 39 41 41 39 33 28 26 25 28 28 23 26 24 22 20 18
39 38 40 41 41 38 40 40 40 36 35 32 29 30 28 29 27 27 26 24 24 22
40 43 43 42 40 40 41 41 41 41 40 39 35 32 29 29 29 28 28 27 26 25
43 42 40 39 40 41 39 40 44 42 41 42 39 35 33 33 32 30 31 28 28 28
38 39 42 39 38 38 40 39 38 39 40 39 40 38 42 41 34 31 34 31 28 25
36 37 39 38 37 40 40 37 39 39 39 41 43 43 49 47 39 34 35 34 30 24
33 36 33 33 38 39 38 40 39 41 41 40 43 46 49 51 49 38 35 35 31 27
36 35 33 36 40 39 35 36 40 39 38 41 42 45 52 51 46 42 36 32 30 30
35 34 37 42 37 34 36 37 33 33 36 38 38 40 46 51 41 40 36 31 32 37
32 33 30 25 25 25 25 22 26 32 33 33 34 37 43 48 46 36 33 35 36 38
Wind_Direction
219 219 223 227 227 226 226 226 223 227 230 232 233 229 233 232 230 226 226 232 228 226
216 216 219 221 225 229 228 229 226 226 231 234 230 226 228 224 228 227 224 228 227 218
214 217 218 219 220 222 225 232 224 226 228 227 228 226 225 221 225 225 222 220 222 219
213 214 216 216 221 225 229 233 230 229 226 226 225 226 225 222 221 222 222 221 224 223
213 212 212 215 217 223 224 231 233 231 229 227 226 227 226 223 220 221 220 219 219 219
210 210 213 216 217 217 221 225 228 227 226 225 225 228 231 224 223 225 224 221 219 218
209 210 214 215 215 216 218 218 221 224 225 228 226 227 227 224 222 225 227 225 224 222
210 210 213 214 213 215 215 217 220 220 221 224 224 223 222 221 220 220 226 226 226 227
209 209 211 211 211 213 215 215 216 215 215 215 219 220 225 228 220 219 225 226 228 227
208 210 211 210 208 213 214 214 215 215 215 216 219 220 228 229 222 222 224 228 226 220
208 211 210 209 212 214 212 212 214 216 215 217 220 220 224 230 228 225 225 228 225 220
206 207 205 209 214 215 212 214 217 218 218 217 220 220 223 218 218 224 224 223 219 219
207 208 207 213 214 214 214 216 218 222 223 225 227 224 222 216 213 218 214 211 214 226
208 209 214 219 220 220 223 232 227 224 221 223 225 228 228 218 213 215 207 206 203 213
Height
791 797 801 805 810 813 816 817 820 823 827 830 833 836 838 841 843 844 847 848 850 852
784 788 792 797 801 807 810 813 814 818 821 824 828 830 833 836 838 840 843 845 846 848
772 777 783 789 793 797 802 806 810 812 815 818 821 825 827 830 833 835 838 841 842 844
763 768 775 780 784 788 793 798 802 805 809 812 814 818 821 824 827 829 833 835 838 841
754 759 764 769 773 778 783 788 793 798 802 806 809 811 814 819 822 823 827 830 832 836
743 749 752 756 763 768 773 778 784 790 794 798 801 804 806 810 814 817 821 824 825 827
730 734 739 745 752 758 761 767 772 778 784 788 792 795 799 802 806 809 813 816 819 821
715 722 730 736 740 746 751 756 760 766 771 776 781 784 788 791 795 799 803 807 810 813
709 714 717 724 730 737 741 745 751 754 758 764 767 771 775 782 786 790 793 797 802 807
700 704 708 714 721 724 729 736 739 743 747 749 754 759 764 771 777 780 783 787 794 798
691 695 703 709 710 713 718 721 726 730 733 738 740 746 752 757 765 768 772 776 783 788
677 685 693 696 697 702 710 713 714 719 724 725 727 731 735 743 750 754 759 765 771 774
670 677 680 680 687 694 698 700 708 713 715 717 721 722 725 731 738 738 741 748 753 759
663 667 675 685 691 696 703 711 710 705 706 709 710 716 716 714 721 725 734 733 730 737